| time (UTC) | temp F | wind direction | speed MPH | gust MPH | rain 1hr in | rain 24hr in | rain mn in | humidity % | barometer mb |
| 20260906044453 | 69 | 310 | 0.0 | 0.0 | 0.00 | 0.00 | 0.00 | 77 | 1014.9 |
| 20260906043953 | 69 | 315 | 0.0 | 0.0 | 0.00 | 0.00 | 0.00 | 76 | 1014.9 |
| 20260906043453 | 69 | 310 | 0.0 | 0.0 | 0.00 | 0.00 | 0.00 | 77 | 1014.6 |
| 20260906042953 | 68 | 322 | 0.0 | 0.0 | 0.00 | 0.00 | 0.00 | 78 | 1014.6 |
| 20260906042453 | 69 | 323 | 0.0 | 0.0 | 0.00 | 0.00 | 0.00 | 76 | 1014.6 |
| 20260906041954 | 69 | 307 | 0.0 | 1.0 | 0.00 | 0.00 | 0.00 | 75 | 1014.6 |
| 20260906041453 | 70 | 317 | 1.0 | 1.0 | 0.00 | 0.00 | 0.00 | 75 | 1014.6 |
| 20260906040954 | 70 | 328 | 0.0 | 0.0 | 0.00 | 0.00 | 0.00 | 74 | 1014.6 |
| 20260906040453 | 70 | 303 | 0.0 | 1.0 | 0.00 | 0.00 | 0.00 | 75 | 1014.6 |
| 20260906035953 | 70 | 320 | 0.0 | 0.0 | 0.00 | 0.00 | 0.00 | 75 | 1014.6 |
| 20260906035453 | 70 | 313 | 0.0 | 0.0 | 0.00 | 0.00 | 0.00 | 74 | 1014.6 |
| 20260906034953 | 70 | 325 | 0.0 | 0.0 | 0.00 | 0.00 | 0.00 | 75 | 1014.6 |
| 20260906034454 | 71 | 322 | 0.0 | 0.0 | 0.00 | 0.00 | 0.00 | 72 | 1014.2 |
| 20260906033953 | 72 | 302 | 0.0 | 0.0 | 0.00 | 0.00 | 0.00 | 69 | 1014.2 |
| 20260906033453 | 72 | 322 | 0.0 | 0.0 | 0.00 | 0.00 | 0.00 | 71 | 1014.2 |
| 20260906032953 | 72 | 320 | 1.0 | 1.0 | 0.00 | 0.00 | 0.00 | 67 | 1014.2 |
| 20260906032453 | 72 | 304 | 0.0 | 1.0 | 0.00 | 0.00 | 0.00 | 70 | 1014.2 |
| 20260906031953 | 72 | 288 | 1.0 | 2.0 | 0.00 | 0.00 | 0.00 | 71 | 1014.2 |
| 20260906031453 | 72 | 286 | 0.0 | 1.0 | 0.00 | 0.00 | 0.00 | 69 | 1014.2 |
| 20260906030953 | 71 | 313 | 0.0 | 0.0 | 0.00 | 0.00 | 0.00 | 72 | 1014.2 |
| 20260906030453 | 71 | 308 | 0.0 | 0.0 | 0.00 | 0.00 | 0.00 | 71 | 1014.2 |
| 20260906025953 | 71 | 309 | 0.0 | 1.0 | 0.00 | 0.00 | 0.00 | 71 | 1014.2 |
| 20260906025453 | 71 | 318 | 0.0 | 0.0 | 0.00 | 0.00 | 0.00 | 73 | 1014.2 |
| 20260906024955 | 71 | 302 | 0.0 | 0.0 | 0.00 | 0.00 | 0.00 | 76 | 1014.2 |
| 20260906024453 | 71 | 282 | 1.0 | 1.0 | 0.00 | 0.00 | 0.00 | 75 | 1014.2 |
| 20260906023953 | 71 | 301 | 0.0 | 0.0 | 0.00 | 0.00 | 0.00 | 77 | 1014.2 |
| 20260906023453 | 71 | 272 | 0.0 | 0.0 | 0.00 | 0.00 | 0.00 | 76 | 1014.2 |
| 20260906022953 | 71 | 271 | 0.0 | 0.0 | 0.00 | 0.00 | 0.00 | 76 | 1014.2 |
| 20260906022456 | 71 | 293 | 1.0 | 1.0 | 0.00 | 0.00 | 0.00 | 78 | 1014.2 |
| 20260906021953 | 71 | 251 | 0.0 | 0.0 | 0.00 | 0.00 | 0.00 | 80 | 1014.2 |
| 20260906021453 | 71 | 262 | 1.0 | 2.0 | 0.00 | 0.00 | 0.00 | 78 | 1014.2 |
| 20260906020953 | 72 | 293 | 1.0 | 2.0 | 0.00 | 0.00 | 0.00 | 76 | 1014.2 |
| 20260906020453 | 72 | 272 | 1.0 | 2.0 | 0.00 | 0.00 | 0.00 | 75 | 1014.2 |
| 20260906015953 | 72 | 327 | 0.0 | 0.0 | 0.00 | 0.00 | 0.00 | 75 | 1014.2 |
| 20260906015453 | 73 | 303 | 1.0 | 1.0 | 0.00 | 0.00 | 0.00 | 73 | 1014.2 |
| 20260906014953 | 73 | 290 | 1.0 | 1.0 | 0.00 | 0.00 | 0.00 | 74 | 1014.2 |
| 20260906014453 | 72 | 300 | 1.0 | 1.0 | 0.00 | 0.00 | 0.00 | 78 | 1014.2 |
| 20260906013953 | 72 | 302 | 1.0 | 1.0 | 0.00 | 0.00 | 0.00 | 78 | 1014.2 |
| 20260906013455 | 71 | 305 | 0.0 | 1.0 | 0.00 | 0.00 | 0.00 | 81 | 1014.2 |
| 20260906012954 | 72 | 326 | 0.0 | 0.0 | 0.00 | 0.00 | 0.00 | 78 | 1014.2 |
| 20260906012453 | 73 | 291 | 1.0 | 1.0 | 0.00 | 0.00 | 0.00 | 76 | 1014.2 |
| 20260906011953 | 73 | 304 | 1.0 | 1.0 | 0.00 | 0.00 | 0.00 | 73 | 1014.2 |
| 20260906011453 | 73 | 285 | 0.0 | 2.0 | 0.00 | 0.00 | 0.00 | 77 | 1014.2 |
| 20260906010953 | 72 | 281 | 1.0 | 1.0 | 0.00 | 0.00 | 0.00 | 78 | 1014.2 |
| 20260906010453 | 72 | 289 | 1.0 | 2.0 | 0.00 | 0.00 | 0.00 | 78 | 1014.2 |
| 20260906005953 | 72 | 284 | 1.0 | 1.0 | 0.00 | 0.00 | 0.00 | 82 | 1014.2 |
| 20260906005454 | 71 | 307 | 1.0 | 1.0 | 0.00 | 0.00 | 0.00 | 81 | 1014.2 |
| 20260906004953 | 71 | 276 | 2.0 | 3.0 | 0.00 | 0.00 | 0.00 | 83 | 1014.2 |
| 20260906004454 | 71 | 295 | 0.0 | 0.0 | 0.00 | 0.00 | 0.00 | 84 | 1014.2 |
| 20260906003953 | 72 | 323 | 0.0 | 0.0 | 0.00 | 0.00 | 0.00 | 81 | 1014.2 |
| 20260906003454 | 73 | 327 | 1.0 | 1.0 | 0.00 | 0.00 | 0.00 | 78 | 1014.2 |
| 20260906002953 | 73 | 337 | 0.0 | 1.0 | 0.00 | 0.00 | 0.00 | 77 | 1014.2 |
| 20260906002453 | 73 | 310 | 1.0 | 2.0 | 0.00 | 0.00 | 0.00 | 78 | 1014.2 |
| 20260906001953 | 72 | 273 | 1.0 | 2.0 | 0.00 | 0.00 | 0.00 | 82 | 1014.2 |
| 20260906001453 | 72 | 291 | 2.0 | 2.0 | 0.00 | 0.00 | 0.00 | 84 | 1014.2 |
| 20260906000953 | 71 | 290 | 1.0 | 1.0 | 0.00 | 0.00 | 0.00 | 84 | 1014.2 |
| 20260906000455 | 71 | 270 | 1.0 | 1.0 | 0.00 | 0.00 | 0.00 | 87 | 1014.2 |
| 20260905235953 | 71 | 282 | 1.0 | 2.0 | 0.00 | 0.00 | 0.00 | 85 | 1014.2 |
| 20260905235454 | 72 | 288 | 1.0 | 1.0 | 0.00 | 0.00 | 0.00 | 84 | 1014.2 |
| 20260905234953 | 72 | 272 | 1.0 | 1.0 | 0.00 | 0.00 | 0.00 | 83 | 1014.2 |
| 20260905234453 | 73 | 277 | 0.0 | 1.0 | 0.00 | 0.00 | 0.00 | 81 | 1013.9 |
| 20260905233954 | 73 | 286 | 2.0 | 2.0 | 0.00 | 0.00 | 0.00 | 81 | 1013.9 |
| 20260905233454 | 72 | 278 | 1.0 | 3.0 | 0.00 | 0.00 | 0.00 | 83 | 1013.9 |
| 20260905232953 | 73 | 281 | 1.0 | 2.0 | 0.00 | 0.00 | 0.00 | 80 | 1013.9 |
| 20260905232453 | 74 | 259 | 2.0 | 2.0 | 0.00 | 0.00 | 0.00 | 79 | 1013.9 |
| 20260905231953 | 74 | 244 | 1.0 | 2.0 | 0.00 | 0.00 | 0.00 | 80 | 1013.9 |
| 20260905231453 | 74 | 306 | 1.0 | 1.0 | 0.00 | 0.00 | 0.00 | 80 | 1013.9 |
| 20260905230953 | 74 | 273 | 1.0 | 2.0 | 0.00 | 0.00 | 0.00 | 78 | 1013.9 |
| 20260905230453 | 74 | 265 | 2.0 | 2.0 | 0.00 | 0.00 | 0.00 | 78 | 1013.9 |
| 20260905225953 | 74 | 297 | 1.0 | 2.0 | 0.00 | 0.00 | 0.00 | 78 | 1013.9 |
| 20260905225454 | 74 | 291 | 1.0 | 1.0 | 0.00 | 0.00 | 0.00 | 80 | 1013.9 |
| 20260905224953 | 74 | 291 | 1.0 | 3.0 | 0.00 | 0.00 | 0.00 | 82 | 1013.9 |
| 20260905224453 | 75 | 291 | 1.0 | 1.0 | 0.00 | 0.00 | 0.00 | 80 | 1013.9 |
| 20260905223953 | 74 | 275 | 1.0 | 1.0 | 0.00 | 0.00 | 0.00 | 84 | 1013.9 |
| 20260905223455 | 74 | 284 | 1.0 | 2.0 | 0.00 | 0.00 | 0.00 | 85 | 1013.9 |
| 20260905222954 | 74 | 300 | 1.0 | 1.0 | 0.00 | 0.00 | 0.00 | 84 | 1013.9 |
| 20260905222453 | 74 | 277 | 1.0 | 2.0 | 0.00 | 0.00 | 0.00 | 84 | 1013.9 |
| 20260905221953 | 74 | 305 | 1.0 | 1.0 | 0.00 | 0.00 | 0.00 | 85 | 1013.9 |
| 20260905221453 | 74 | 287 | 1.0 | 2.0 | 0.00 | 0.00 | 0.00 | 86 | 1013.9 |
| 20260905220953 | 74 | 313 | 0.0 | 1.0 | 0.00 | 0.00 | 0.00 | 88 | 1013.9 |
| 20260905220454 | 74 | 295 | 0.0 | 1.0 | 0.00 | 0.00 | 0.00 | 89 | 1013.9 |
| 20260905215953 | 73 | 337 | 0.0 | 0.0 | 0.00 | 0.00 | 0.00 | 92 | 1013.9 |
| 20260905215454 | 72 | 309 | 0.0 | 0.0 | 0.00 | 0.00 | 0.00 | 90 | 1013.9 |
| 20260905214953 | 72 | 329 | 0.0 | 0.0 | 0.00 | 0.00 | 0.00 | 90 | 1013.9 |
| 20260905214454 | 72 | 318 | 0.0 | 0.0 | 0.00 | 0.00 | 0.00 | 90 | 1013.9 |
| 20260905213953 | 73 | 299 | 0.0 | 1.0 | 0.00 | 0.00 | 0.00 | 88 | 1013.9 |
| 20260905213453 | 73 | 309 | 0.0 | 1.0 | 0.00 | 0.00 | 0.00 | 89 | 1013.5 |
| 20260905212953 | 72 | 329 | 0.0 | 0.0 | 0.00 | 0.00 | 0.00 | 91 | 1013.5 |
| 20260905212454 | 72 | 321 | 0.0 | 0.0 | 0.00 | 0.00 | 0.00 | 91 | 1013.5 |
| 20260905211954 | 72 | 294 | 1.0 | 1.0 | 0.00 | 0.00 | 0.00 | 91 | 1013.5 |
| 20260905211454 | 73 | 310 | 0.0 | 0.0 | 0.00 | 0.00 | 0.00 | 89 | 1013.5 |
| 20260905210952 | 73 | 313 | 0.0 | 0.0 | 0.00 | 0.00 | 0.00 | 88 | 1013.2 |
| 20260905210453 | 74 | 311 | 0.0 | 0.0 | 0.00 | 0.00 | 0.00 | 88 | 1013.2 |
| 20260905205953 | 74 | 296 | 0.0 | 0.0 | 0.00 | 0.00 | 0.00 | 88 | 1013.2 |
| 20260905205454 | 74 | 335 | 0.0 | 0.0 | 0.00 | 0.00 | 0.00 | 88 | 1013.2 |
| 20260905204954 | 74 | 334 | 0.0 | 0.0 | 0.00 | 0.00 | 0.00 | 89 | 1013.2 |
| 20260905204453 | 74 | 325 | 0.0 | 0.0 | 0.00 | 0.00 | 0.00 | 91 | 1013.2 |
| 20260905203953 | 73 | 293 | 1.0 | 1.0 | 0.00 | 0.00 | 0.00 | 91 | 1013.2 |
| 20260905203453 | 73 | 323 | 0.0 | 0.0 | 0.00 | 0.00 | 0.00 | 90 | 1013.2 |
| 20260905202954 | 74 | 315 | 1.0 | 1.0 | 0.00 | 0.00 | 0.00 | 90 | 1013.2 |
| 20260905202453 | 74 | 304 | 1.0 | 1.0 | 0.00 | 0.00 | 0.00 | 89 | 1013.2 |
| 20260905201953 | 74 | 312 | 0.0 | 0.0 | 0.00 | 0.00 | 0.00 | 88 | 1013.2 |
| 20260905201453 | 74 | 327 | 0.0 | 0.0 | 0.00 | 0.00 | 0.00 | 88 | 1013.2 |
| 20260905200953 | 74 | 337 | 1.0 | 1.0 | 0.00 | 0.00 | 0.00 | 88 | 1013.2 |
| 20260905200454 | 75 | 344 | 0.0 | 0.0 | 0.00 | 0.00 | 0.00 | 90 | 1013.2 |
| 20260905195953 | 74 | 310 | 1.0 | 1.0 | 0.00 | 0.00 | 0.00 | 90 | 1013.2 |
| 20260905195453 | 75 | 333 | 0.0 | 0.0 | 0.00 | 0.00 | 0.00 | 89 | 1013.2 |
| 20260905194953 | 75 | 332 | 0.0 | 0.0 | 0.00 | 0.00 | 0.00 | 90 | 1013.2 |
| 20260905194453 | 75 | 332 | 0.0 | 0.0 | 0.00 | 0.00 | 0.00 | 91 | 1013.2 |
| 20260905193953 | 74 | 321 | 0.0 | 0.0 | 0.00 | 0.00 | 0.00 | 92 | 1013.2 |
| 20260905193454 | 74 | 303 | 1.0 | 1.0 | 0.00 | 0.00 | 0.00 | 93 | 1012.5 |
| 20260905192954 | 74 | 323 | 0.0 | 0.0 | 0.00 | 0.00 | 0.00 | 92 | 1012.5 |
| 20260905192454 | 74 | 308 | 1.0 | 1.0 | 0.00 | 0.00 | 0.00 | 92 | 1012.5 |
| 20260905191954 | 75 | 310 | 0.0 | 0.0 | 0.00 | 0.00 | 0.00 | 91 | 1012.5 |
| 20260905191453 | 75 | 317 | 0.0 | 0.0 | 0.00 | 0.00 | 0.00 | 91 | 1012.5 |
| 20260905190953 | 75 | 320 | 0.0 | 0.0 | 0.00 | 0.00 | 0.00 | 91 | 1012.2 |
| 20260905190453 | 76 | 336 | 0.0 | 0.0 | 0.00 | 0.00 | 0.00 | 91 | 1012.2 |
| 20260905185953 | 76 | 302 | 1.0 | 1.0 | 0.00 | 0.00 | 0.00 | 90 | 1012.2 |
| 20260905185453 | 76 | 323 | 0.0 | 0.0 | 0.00 | 0.00 | 0.00 | 91 | 1012.2 |
| 20260905184953 | 76 | 310 | 0.0 | 0.0 | 0.00 | 0.00 | 0.00 | 90 | 1012.2 |
| 20260905184453 | 77 | 336 | 0.0 | 0.0 | 0.00 | 0.00 | 0.00 | 90 | 1011.9 |
| 20260905183953 | 77 | 337 | 0.0 | 0.0 | 0.00 | 0.00 | 0.00 | 88 | 1011.9 |
| 20260905183454 | 77 | 318 | 0.0 | 0.0 | 0.00 | 0.00 | 0.00 | 89 | 1011.9 |
| 20260905182953 | 77 | 317 | 0.0 | 0.0 | 0.00 | 0.00 | 0.00 | 89 | 1011.9 |
| 20260905182453 | 78 | 311 | 0.0 | 0.0 | 0.00 | 0.00 | 0.00 | 90 | 1011.9 |
| 20260905181953 | 78 | 313 | 0.0 | 0.0 | 0.00 | 0.00 | 0.00 | 89 | 1011.9 |
| 20260905181454 | 78 | 322 | 0.0 | 0.0 | 0.00 | 0.00 | 0.00 | 88 | 1011.9 |
| 20260905180954 | 78 | 316 | 0.0 | 0.0 | 0.00 | 0.00 | 0.00 | 88 | 1011.9 |
| 20260905180454 | 78 | 320 | 0.0 | 0.0 | 0.00 | 0.00 | 0.00 | 87 | 1011.9 |
| 20260905175953 | 78 | 319 | 0.0 | 0.0 | 0.00 | 0.00 | 0.00 | 85 | 1011.5 |
| 20260905175453 | 78 | 322 | 0.0 | 0.0 | 0.00 | 0.00 | 0.00 | 85 | 1011.5 |
| 20260905174953 | 78 | 287 | 2.0 | 2.0 | 0.00 | 0.00 | 0.00 | 86 | 1011.5 |
| 20260905174453 | 79 | 315 | 0.0 | 0.0 | 0.00 | 0.00 | 0.00 | 85 | 1011.5 |
| 20260905173953 | 79 | 300 | 1.0 | 1.0 | 0.00 | 0.00 | 0.00 | 85 | 1011.5 |
| 20260905173454 | 79 | 304 | 1.0 | 1.0 | 0.00 | 0.00 | 0.00 | 85 | 1011.5 |
| 20260905172953 | 79 | 301 | 0.0 | 1.0 | 0.00 | 0.00 | 0.00 | 85 | 1011.5 |
| 20260905172453 | 80 | 314 | 0.0 | 0.0 | 0.00 | 0.00 | 0.00 | 84 | 1011.5 |
| 20260905171953 | 81 | 316 | 0.0 | 0.0 | 0.00 | 0.00 | 0.00 | 84 | 1011.5 |
| 20260905171453 | 81 | 314 | 0.0 | 0.0 | 0.00 | 0.00 | 0.00 | 83 | 1011.5 |
| 20260905170953 | 82 | 315 | 0.0 | 0.0 | 0.00 | 0.00 | 0.00 | 81 | 1011.2 |
| 20260905170454 | 82 | 315 | 0.0 | 0.0 | 0.00 | 0.00 | 0.00 | 81 | 1011.2 |
| 20260905165953 | 82 | 324 | 0.0 | 0.0 | 0.00 | 0.00 | 0.00 | 80 | 1011.2 |
| 20260905165453 | 82 | 357 | 0.0 | 2.0 | 0.00 | 0.00 | 0.00 | 79 | 1011.2 |
| 20260905164954 | 82 | 333 | 0.0 | 0.0 | 0.00 | 0.00 | 0.00 | 80 | 1011.2 |
| 20260905164453 | 83 | 335 | 1.0 | 1.0 | 0.00 | 0.00 | 0.00 | 79 | 1011.2 |
| 20260905163954 | 83 | 360 | 1.0 | 2.0 | 0.00 | 0.00 | 0.00 | 79 | 1011.2 |
| 20260905163453 | 83 | 3 | 1.0 | 1.0 | 0.00 | 0.00 | 0.00 | 78 | 1011.2 |
| 20260905162953 | 83 | 338 | 2.0 | 3.0 | 0.00 | 0.00 | 0.00 | 79 | 1011.2 |
| 20260905162454 | 83 | 342 | 3.0 | 4.0 | 0.00 | 0.00 | 0.00 | 78 | 1011.2 |
| 20260905161957 | 83 | 360 | 3.0 | 4.0 | 0.00 | 0.00 | 0.00 | 78 | 1011.2 |
| 20260905161453 | 84 | 356 | 0.0 | 0.0 | 0.00 | 0.00 | 0.00 | 76 | 1011.2 |
| 20260905160953 | 84 | 25 | 2.0 | 2.0 | 0.00 | 0.00 | 0.00 | 76 | 1011.2 |
| 20260905160453 | 84 | 345 | 2.0 | 2.0 | 0.00 | 0.00 | 0.00 | 75 | 1011.2 |
| 20260905155955 | 84 | 349 | 4.0 | 5.0 | 0.00 | 0.00 | 0.00 | 77 | 1010.8 |
| 20260905155454 | 84 | 8 | 3.0 | 4.0 | 0.00 | 0.00 | 0.00 | 74 | 1010.8 |
| 20260905154954 | 85 | 345 | 2.0 | 2.0 | 0.00 | 0.00 | 0.00 | 75 | 1010.8 |
| 20260905154453 | 84 | 360 | 2.0 | 3.0 | 0.00 | 0.00 | 0.00 | 76 | 1010.8 |
| 20260905153954 | 85 | 333 | 1.0 | 1.0 | 0.00 | 0.00 | 0.00 | 75 | 1010.8 |
| 20260905153459 | 85 | 5 | 3.0 | 3.0 | 0.00 | 0.00 | 0.00 | 76 | 1010.8 |
| 20260905152954 | 85 | 6 | 1.0 | 2.0 | 0.00 | 0.00 | 0.00 | 75 | 1010.8 |
| 20260905152453 | 85 | 4 | 3.0 | 4.0 | 0.00 | 0.00 | 0.00 | 74 | 1010.8 |
| 20260905151953 | 86 | 356 | 2.0 | 2.0 | 0.00 | 0.00 | 0.00 | 74 | 1010.8 |
| 20260905151454 | 87 | 55 | 2.0 | 3.0 | 0.00 | 0.00 | 0.00 | 73 | 1010.8 |
| 20260905151000 | 86 | 359 | 2.0 | 3.0 | 0.00 | 0.00 | 0.00 | 74 | 1010.8 |
| 20260905150453 | 86 | 352 | 1.0 | 2.0 | 0.00 | 0.00 | 0.00 | 74 | 1010.8 |
| 20260905145953 | 86 | 21 | 2.0 | 2.0 | 0.00 | 0.00 | 0.00 | 73 | 1010.8 |
| 20260905145454 | 86 | 16 | 2.0 | 2.0 | 0.00 | 0.00 | 0.00 | 74 | 1010.8 |
| 20260905144954 | 86 | 330 | 2.0 | 3.0 | 0.00 | 0.00 | 0.00 | 74 | 1010.8 |
| 20260905144453 | 86 | 8 | 4.0 | 4.0 | 0.00 | 0.00 | 0.00 | 74 | 1010.8 |
| 20260905143953 | 87 | 338 | 1.0 | 2.0 | 0.00 | 0.00 | 0.00 | 73 | 1010.8 |
| 20260905143453 | 86 | 4 | 2.0 | 6.0 | 0.00 | 0.00 | 0.00 | 75 | 1010.8 |
| 20260905142953 | 86 | 15 | 3.0 | 3.0 | 0.00 | 0.00 | 0.00 | 73 | 1010.8 |
| 20260905142453 | 87 | 358 | 3.0 | 4.0 | 0.00 | 0.00 | 0.00 | 73 | 1011.2 |
| 20260905141953 | 86 | 348 | 2.0 | 3.0 | 0.00 | 0.00 | 0.00 | 74 | 1011.2 |
| 20260905141453 | 86 | 28 | 4.0 | 5.0 | 0.00 | 0.00 | 0.00 | 74 | 1011.2 |
| 20260905140953 | 86 | 11 | 4.0 | 6.0 | 0.00 | 0.00 | 0.00 | 74 | 1011.2 |
| 20260905140455 | 87 | 24 | 3.0 | 3.0 | 0.00 | 0.00 | 0.00 | 72 | 1011.2 |
| 20260905135953 | 86 | 58 | 4.0 | 5.0 | 0.00 | 0.00 | 0.00 | 74 | 1011.2 |
| 20260905135454 | 87 | 13 | 4.0 | 5.0 | 0.00 | 0.00 | 0.00 | 73 | 1011.2 |
| 20260905134953 | 87 | 19 | 4.0 | 5.0 | 0.00 | 0.00 | 0.00 | 72 | 1011.2 |
| 20260905134453 | 87 | 344 | 1.0 | 6.0 | 0.00 | 0.00 | 0.00 | 73 | 1011.2 |
| 20260905133955 | 88 | 360 | 2.0 | 4.0 | 0.00 | 0.00 | 0.00 | 72 | 1011.2 |
| 20260905133454 | 86 | 10 | 3.0 | 6.0 | 0.00 | 0.00 | 0.00 | 74 | 1011.2 |
| 20260905132953 | 87 | 15 | 6.0 | 6.0 | 0.00 | 0.00 | 0.00 | 73 | 1011.2 |
| 20260905132453 | 87 | 44 | 1.0 | 3.0 | 0.00 | 0.00 | 0.00 | 72 | 1011.2 |
| 20260905131953 | 88 | 25 | 2.0 | 2.0 | 0.00 | 0.00 | 0.00 | 71 | 1011.2 |
| 20260905131453 | 87 | 18 | 4.0 | 4.0 | 0.00 | 0.00 | 0.00 | 72 | 1011.2 |
| 20260905130954 | 88 | 10 | 2.0 | 4.0 | 0.00 | 0.00 | 0.00 | 71 | 1011.2 |
| 20260905130453 | 87 | 26 | 4.0 | 5.0 | 0.00 | 0.00 | 0.00 | 70 | 1011.2 |
| 20260905125953 | 87 | 19 | 5.0 | 6.0 | 0.00 | 0.00 | 0.00 | 70 | 1011.2 |
| 20260905125453 | 88 | 13 | 4.0 | 6.0 | 0.00 | 0.00 | 0.00 | 70 | 1011.2 |
| 20260905124953 | 89 | 337 | 1.0 | 2.0 | 0.00 | 0.00 | 0.00 | 67 | 1011.2 |
| 20260905124453 | 88 | 35 | 5.0 | 5.0 | 0.00 | 0.00 | 0.00 | 69 | 1011.2 |
| 20260905123954 | 87 | 344 | 2.0 | 4.0 | 0.00 | 0.00 | 0.00 | 70 | 1011.2 |
| 20260905123454 | 88 | 336 | 1.0 | 2.0 | 0.00 | 0.00 | 0.00 | 71 | 1011.5 |
| 20260905122953 | 87 | 18 | 4.0 | 5.0 | 0.00 | 0.00 | 0.00 | 73 | 1011.5 |
| 20260905122453 | 87 | 97 | 3.0 | 4.0 | 0.00 | 0.00 | 0.00 | 74 | 1011.2 |
| 20260905121953 | 87 | 355 | 4.0 | 5.0 | 0.00 | 0.00 | 0.00 | 72 | 1011.2 |
| 20260905121454 | 88 | 331 | 1.0 | 1.0 | 0.00 | 0.00 | 0.00 | 72 | 1011.2 |
| 20260905120955 | 87 | 15 | 3.0 | 5.0 | 0.00 | 0.00 | 0.00 | 73 | 1011.5 |
| 20260905120454 | 87 | 356 | 4.0 | 5.0 | 0.00 | 0.00 | 0.00 | 73 | 1011.5 |
| 20260905115953 | 87 | 339 | 4.0 | 6.0 | 0.00 | 0.00 | 0.00 | 73 | 1011.5 |
| 20260905115453 | 86 | 36 | 5.0 | 6.0 | 0.00 | 0.00 | 0.00 | 73 | 1011.5 |
| 20260905114953 | 87 | 347 | 3.0 | 4.0 | 0.00 | 0.00 | 0.00 | 70 | 1011.5 |
| 20260905114453 | 87 | 343 | 2.0 | 5.0 | 0.00 | 0.00 | 0.00 | 69 | 1011.5 |
| 20260905113953 | 88 | 48 | 0.0 | 1.0 | 0.00 | 0.00 | 0.00 | 68 | 1011.5 |
| 20260905113453 | 88 | 346 | 0.0 | 1.0 | 0.00 | 0.00 | 0.00 | 66 | 1011.5 |
| 20260905112954 | 88 | 68 | 2.0 | 4.0 | 0.00 | 0.00 | 0.00 | 65 | 1011.5 |
| 20260905112454 | 88 | 16 | 3.0 | 4.0 | 0.00 | 0.00 | 0.00 | 65 | 1011.5 |
| 20260905111953 | 86 | 341 | 0.0 | 2.0 | 0.00 | 0.00 | 0.00 | 68 | 1011.2 |
| 20260905111454 | 85 | 65 | 6.0 | 6.0 | 0.00 | 0.00 | 0.00 | 67 | 1011.2 |
| 20260905110953 | 85 | 23 | 2.0 | 4.0 | 0.00 | 0.00 | 0.00 | 69 | 1011.2 |
| 20260905110453 | 85 | 8 | 1.0 | 6.0 | 0.00 | 0.00 | 0.00 | 68 | 1011.2 |
| 20260905105953 | 86 | 335 | 3.0 | 6.0 | 0.00 | 0.00 | 0.00 | 68 | 1011.2 |
| 20260905105453 | 86 | 349 | 1.0 | 2.0 | 0.00 | 0.00 | 0.00 | 67 | 1011.2 |
| 20260905104953 | 86 | 349 | 2.0 | 2.0 | 0.00 | 0.00 | 0.00 | 67 | 1011.2 |
| 20260905104453 | 85 | 5 | 6.0 | 6.0 | 0.00 | 0.00 | 0.00 | 66 | 1011.2 |
| 20260905103955 | 85 | 353 | 3.0 | 3.0 | 0.00 | 0.00 | 0.00 | 67 | 1011.2 |
| 20260905103453 | 86 | 5 | 2.0 | 2.0 | 0.00 | 0.00 | 0.00 | 67 | 1011.2 |
| 20260905102953 | 87 | 348 | 2.0 | 3.0 | 0.00 | 0.00 | 0.00 | 66 | 1011.2 |
| 20260905102457 | 86 | 354 | 4.0 | 6.0 | 0.00 | 0.00 | 0.00 | 66 | 1011.5 |
| 20260905101954 | 85 | 359 | 3.0 | 6.0 | 0.00 | 0.00 | 0.00 | 69 | 1011.5 |
| 20260905101454 | 84 | 350 | 1.0 | 4.0 | 0.00 | 0.00 | 0.00 | 71 | 1011.5 |
| 20260905100953 | 84 | 49 | 5.0 | 6.0 | 0.00 | 0.00 | 0.00 | 71 | 1011.5 |
| 20260905100453 | 84 | 15 | 3.0 | 5.0 | 0.00 | 0.00 | 0.00 | 71 | 1011.5 |
| 20260905095954 | 85 | 7 | 3.0 | 5.0 | 0.00 | 0.00 | 0.00 | 70 | 1011.5 |
| 20260905095453 | 85 | 18 | 4.0 | 4.0 | 0.00 | 0.00 | 0.00 | 66 | 1011.5 |
| 20260905094956 | 86 | 349 | 0.0 | 1.0 | 0.00 | 0.00 | 0.00 | 62 | 1011.5 |
| 20260905094455 | 86 | 349 | 2.0 | 2.0 | 0.00 | 0.00 | 0.00 | 61 | 1011.5 |
| 20260905093954 | 87 | 352 | 0.0 | 0.0 | 0.00 | 0.00 | 0.00 | 61 | 1011.5 |
| 20260905093453 | 85 | 342 | 1.0 | 1.0 | 0.00 | 0.00 | 0.00 | 61 | 1011.5 |
| 20260905092953 | 85 | 14 | 3.0 | 5.0 | 0.00 | 0.00 | 0.00 | 61 | 1011.5 |
| 20260905092453 | 85 | 356 | 1.0 | 1.0 | 0.00 | 0.00 | 0.00 | 60 | 1011.5 |
| 20260905091953 | 85 | 338 | 0.0 | 1.0 | 0.00 | 0.00 | 0.00 | 58 | 1011.5 |
| 20260905091453 | 85 | 336 | 1.0 | 1.0 | 0.00 | 0.00 | 0.00 | 58 | 1011.5 |
| 20260905090954 | 86 | 340 | 0.0 | 0.0 | 0.00 | 0.00 | 0.00 | 58 | 1011.5 |
| 20260905090453 | 85 | 302 | 1.0 | 1.0 | 0.00 | 0.00 | 0.00 | 57 | 1011.5 |
| 20260905085953 | 84 | 315 | 1.0 | 1.0 | 0.00 | 0.00 | 0.00 | 57 | 1011.5 |
| 20260905085454 | 84 | 327 | 2.0 | 2.0 | 0.00 | 0.00 | 0.00 | 58 | 1011.5 |
| 20260905084953 | 84 | 336 | 1.0 | 1.0 | 0.00 | 0.00 | 0.00 | 57 | 1011.5 |
| 20260905084453 | 85 | 342 | 1.0 | 1.0 | 0.00 | 0.00 | 0.00 | 56 | 1011.2 |
| 20260905083953 | 85 | 344 | 0.0 | 0.0 | 0.00 | 0.00 | 0.00 | 56 | 1011.2 |
| 20260905083453 | 84 | 346 | 2.0 | 3.0 | 0.00 | 0.00 | 0.00 | 56 | 1011.2 |
| 20260905082953 | 84 | 349 | 1.0 | 2.0 | 0.00 | 0.00 | 0.00 | 56 | 1011.2 |
| 20260905082453 | 84 | 350 | 2.0 | 2.0 | 0.00 | 0.00 | 0.00 | 56 | 1011.2 |
| 20260905081953 | 84 | 4 | 1.0 | 3.0 | 0.00 | 0.00 | 0.00 | 56 | 1011.2 |
| 20260905081453 | 84 | 356 | 3.0 | 4.0 | 0.00 | 0.00 | 0.00 | 56 | 1011.2 |
| 20260905080953 | 84 | 352 | 1.0 | 1.0 | 0.00 | 0.00 | 0.00 | 55 | 1011.2 |
| 20260905080453 | 84 | 346 | 1.0 | 1.0 | 0.00 | 0.00 | 0.00 | 55 | 1011.2 |
| 20260905075953 | 84 | 358 | 2.0 | 2.0 | 0.00 | 0.00 | 0.00 | 54 | 1011.2 |
| 20260905075453 | 83 | 337 | 1.0 | 2.0 | 0.00 | 0.00 | 0.00 | 54 | 1011.2 |
| 20260905074954 | 83 | 360 | 1.0 | 1.0 | 0.00 | 0.00 | 0.00 | 55 | 1011.2 |
| 20260905074453 | 83 | 352 | 1.0 | 2.0 | 0.00 | 0.00 | 0.00 | 54 | 1010.8 |
| 20260905073953 | 83 | 351 | 1.0 | 1.0 | 0.00 | 0.00 | 0.00 | 53 | 1010.8 |
| 20260905073454 | 83 | 13 | 1.0 | 2.0 | 0.00 | 0.00 | 0.00 | 52 | 1010.5 |
| 20260905072953 | 83 | 3 | 1.0 | 2.0 | 0.00 | 0.00 | 0.00 | 51 | 1010.5 |
| 20260905072455 | 83 | 6 | 1.0 | 1.0 | 0.00 | 0.00 | 0.00 | 51 | 1010.5 |
| 20260905071953 | 83 | 5 | 2.0 | 3.0 | 0.00 | 0.00 | 0.00 | 51 | 1010.5 |
| 20260905071453 | 82 | 359 | 0.0 | 0.0 | 0.00 | 0.00 | 0.00 | 50 | 1010.5 |
| 20260905070953 | 82 | 336 | 1.0 | 2.0 | 0.00 | 0.00 | 0.00 | 50 | 1010.5 |
| 20260905070453 | 82 | 10 | 2.0 | 2.0 | 0.00 | 0.00 | 0.00 | 48 | 1010.5 |
| 20260905065953 | 81 | 310 | 0.0 | 1.0 | 0.00 | 0.00 | 0.00 | 49 | 1010.5 |
| 20260905065453 | 81 | 337 | 0.0 | 0.0 | 0.00 | 0.00 | 0.00 | 47 | 1010.5 |
| 20260905064954 | 80 | 331 | 1.0 | 1.0 | 0.00 | 0.00 | 0.00 | 50 | 1010.5 |
| 20260905064453 | 80 | 328 | 0.0 | 0.0 | 0.00 | 0.00 | 0.00 | 49 | 1010.5 |
| 20260905063954 | 79 | 356 | 1.0 | 2.0 | 0.00 | 0.00 | 0.00 | 47 | 1010.5 |
| 20260905063453 | 79 | 274 | 2.0 | 2.0 | 0.00 | 0.00 | 0.00 | 47 | 1010.5 |
| 20260905062953 | 78 | 297 | 0.0 | 0.0 | 0.00 | 0.00 | 0.00 | 48 | 1010.5 |
| 20260905062453 | 77 | 325 | 1.0 | 1.0 | 0.00 | 0.00 | 0.00 | 50 | 1010.5 |
| 20260905061953 | 77 | 308 | 1.0 | 1.0 | 0.00 | 0.00 | 0.00 | 49 | 1010.5 |
| 20260905061455 | 76 | 307 | 0.0 | 1.0 | 0.00 | 0.00 | 0.00 | 49 | 1010.5 |
| 20260905060953 | 75 | 212 | 0.0 | 0.0 | 0.00 | 0.00 | 0.00 | 50 | 1010.5 |
| 20260905060453 | 74 | 102 | 1.0 | 1.0 | 0.00 | 0.00 | 0.00 | 52 | 1010.5 |
| 20260905055953 | 73 | 276 | 2.0 | 2.0 | 0.00 | 0.00 | 0.00 | 57 | 1010.8 |
| 20260905055453 | 72 | 326 | 0.0 | 0.0 | 0.00 | 0.00 | 0.00 | 61 | 1010.8 |
| 20260905054955 | 72 | 315 | 0.0 | 0.0 | 0.00 | 0.00 | 0.00 | 61 | 1010.8 |
| 20260905054453 | 70 | 323 | 0.0 | 0.0 | 0.00 | 0.00 | 0.00 | 63 | 1010.8 |
| 20260905053953 | 70 | 326 | 0.0 | 0.0 | 0.00 | 0.00 | 0.00 | 64 | 1010.8 |
| 20260905053453 | 70 | 308 | 0.0 | 0.0 | 0.00 | 0.00 | 0.00 | 63 | 1010.8 |
| 20260905052953 | 71 | 326 | 0.0 | 0.0 | 0.00 | 0.00 | 0.00 | 59 | 1010.8 |
| 20260905052453 | 71 | 317 | 0.0 | 0.0 | 0.00 | 0.00 | 0.00 | 58 | 1010.5 |
| 20260905051953 | 72 | 330 | 0.0 | 0.0 | 0.00 | 0.00 | 0.00 | 51 | 1010.5 |
| 20260905051453 | 73 | 326 | 0.0 | 0.0 | 0.00 | 0.00 | 0.00 | 49 | 1010.5 |
| 20260905050954 | 72 | 338 | 1.0 | 1.0 | 0.00 | 0.00 | 0.00 | 49 | 1010.8 |
| 20260905050453 | 71 | 330 | 0.0 | 1.0 | 0.00 | 0.00 | 0.00 | 50 | 1010.8 |
| 20260905045954 | 71 | 321 | 0.0 | 0.0 | 0.00 | 0.00 | 0.00 | 52 | 1010.5 |
| 20260905045453 | 71 | 313 | 0.0 | 0.0 | 0.00 | 0.00 | 0.00 | 51 | 1010.5 |
| 20260905044954 | 71 | 328 | 0.0 | 1.0 | 0.00 | 0.00 | 0.00 | 51 | 1010.5 |